, AK

(GMT )
Golovin

Weather History for PAGL - November, 2012

Change the Weather History Date:

Wednesday, November 7, 2012

  Actual Average Record
Temperature  
Mean Temperature 24 °F -  
Max Temperature 26 °F - - ()
Min Temperature 21 °F - - ()
Degree Days  
Heating Degree Days 42    
Moisture  
Dew Point 24 °F    
Average Humidity 95    
Maximum Humidity 100    
Minimum Humidity 86    
Precipitation  
Precipitation 0.00 in - - ()
Sea Level Pressure  
Sea Level Pressure 30.44 in    
Wind  
Wind Speed 8 mph (SE)    
Max Wind Speed 16 mph    
Max Gust Speed -    
Visibility 8 miles    
Events      
T = Trace of Precipitation, MM = Missing Value Source: NWS Daily Summary

Daily Weather History Graph

Daily Weather History Graph

Search for Another Location

Airport or City:

Astronomy

Nov. 07, 2012 Rise Set
Actual Time 10:00 AM AKST 5:10 PM AKST
Civil Twilight 9:02 AM AKST 6:07 PM AKST
Nautical Twilight 8:03 AM AKST 7:07 PM AKST
Astronomical Twilight 7:06 AM AKST 8:03 PM AKST
Moon 12:40 AM AKST (11/7) 3:36 PM AKST (11/7)
Length of Visible Light 9h 04m
Length of Day
7h 10m
Last Quarter, 41% of the Moon is Illuminated
Nov 7
Last Quarter
Nov 13
New
Nov 20
First Quarter
Nov 28
Full
Dec 6
Last Quarter

Hourly Weather History & Observations

Time (AKST) Temp. Windchill Dew Point Humidity Pressure Visibility Wind Dir Wind Speed Gust Speed Precip Events Conditions
12:16 AM 26.6 °F 18.2 °F 24.8 °F 93% 30.43 in 5.0 mi SSE 8.1 mph - N/A   Overcast
12:36 AM 24.8 °F 14.6 °F 24.8 °F 100% 30.43 in 5.0 mi SE 10.4 mph - N/A   Overcast
12:56 AM 24.8 °F 16.1 °F 24.8 °F 100% 30.43 in 3.0 mi SE 8.1 mph - N/A   Overcast
1:16 AM 24.8 °F 14.6 °F 24.8 °F 100% 30.43 in 2.0 mi SSE 10.4 mph - N/A   Overcast
1:36 AM 24.8 °F 14.6 °F 23.0 °F 93% 30.43 in 3.0 mi SSE 10.4 mph - N/A   Overcast
1:56 AM 24.8 °F 15.3 °F 24.8 °F 100% 30.43 in 3.0 mi SE 9.2 mph - N/A   Overcast
2:16 AM 24.8 °F 15.3 °F 24.8 °F 100% 30.43 in 2.5 mi SE 9.2 mph - N/A   Overcast
2:36 AM 24.8 °F 14.6 °F 24.8 °F 100% 30.43 in 5.0 mi SE 10.4 mph - N/A   Overcast
3:36 AM 26.6 °F 14.3 °F 24.8 °F 93% 30.42 in 10.0 mi SE 16.1 mph - N/A   Overcast
3:56 AM 26.6 °F 16.2 °F 26.6 °F 100% 30.43 in 10.0 mi SE 11.5 mph - N/A   Overcast
4:16 AM 26.6 °F 17.5 °F 24.8 °F 93% 30.44 in 10.0 mi SSE 9.2 mph - N/A   Overcast
4:36 AM 26.6 °F 16.2 °F 24.8 °F 93% 30.43 in 10.0 mi SSE 11.5 mph - N/A   Overcast
4:56 AM 26.6 °F 17.5 °F 24.8 °F 93% 30.44 in 10.0 mi SSE 9.2 mph - N/A   Overcast
5:16 AM 26.6 °F 17.5 °F 24.8 °F 93% 30.44 in 10.0 mi SE 9.2 mph - N/A   Overcast
5:36 AM 26.6 °F 18.2 °F 24.8 °F 93% 30.44 in 10.0 mi SE 8.1 mph - N/A   Overcast
5:56 AM 26.6 °F 18.2 °F 24.8 °F 93% 30.44 in 10.0 mi SE 8.1 mph - N/A   Overcast
6:16 AM 26.6 °F 19.1 °F 26.6 °F 100% 30.44 in 10.0 mi ESE 6.9 mph - N/A   Overcast
6:36 AM 26.6 °F 19.1 °F 24.8 °F 93% 30.44 in 10.0 mi ESE 6.9 mph - N/A   Overcast
6:56 AM 26.6 °F 18.2 °F 26.6 °F 100% 30.44 in 7.0 mi ESE 8.1 mph - N/A   Overcast
7:16 AM 26.6 °F 18.2 °F 26.6 °F 100% 30.44 in 3.0 mi SE 8.1 mph - N/A   Overcast
7:36 AM 26.6 °F 19.1 °F 26.6 °F 100% 30.44 in 5.0 mi SE 6.9 mph - N/A   Overcast
7:56 AM 26.6 °F 20.0 °F 26.6 °F 100% 30.44 in 6.0 mi SE 5.8 mph - N/A   Overcast
8:16 AM 26.6 °F 18.2 °F 26.6 °F 100% 30.44 in 10.0 mi SSE 8.1 mph - N/A   Overcast
8:36 AM 26.6 °F 20.0 °F 26.6 °F 100% 30.45 in 8.0 mi SE 5.8 mph - N/A   Overcast
8:56 AM 26.6 °F 21.2 °F 26.6 °F 100% 30.45 in 6.0 mi SE 4.6 mph - N/A   Overcast
9:16 AM 26.6 °F 18.2 °F 24.8 °F 93% 30.45 in 8.0 mi SSE 8.1 mph - N/A   Overcast
9:36 AM 26.6 °F 19.1 °F 26.6 °F 100% 30.46 in 10.0 mi SSE 6.9 mph - N/A   Overcast
9:56 AM 26.6 °F 18.2 °F 26.6 °F 100% 30.46 in 9.0 mi SE 8.1 mph - N/A   Overcast
10:16 AM 26.6 °F 19.1 °F 24.8 °F 93% 30.47 in 2.5 mi SE 6.9 mph - N/A   Overcast
10:36 AM 26.6 °F 17.5 °F 26.6 °F 100% 30.47 in 2.5 mi SSE 9.2 mph - N/A   Overcast
10:56 AM 26.6 °F 18.2 °F 26.6 °F 100% 30.47 in 4.0 mi SSE 8.1 mph - N/A   Overcast
11:16 AM 26.6 °F 18.2 °F 26.6 °F 100% 30.47 in 5.0 mi SE 8.1 mph - N/A   Overcast
11:36 AM 26.6 °F 17.5 °F 26.6 °F 100% 30.48 in 10.0 mi SE 9.2 mph - N/A   Overcast
11:56 AM 26.6 °F 16.8 °F 26.6 °F 100% 30.47 in 10.0 mi SE 10.4 mph - N/A   Overcast
12:16 PM 26.6 °F 16.8 °F 24.8 °F 93% 30.47 in 10.0 mi SE 10.4 mph - N/A   Overcast
12:36 PM 26.6 °F 17.5 °F 24.8 °F 93% 30.48 in 10.0 mi SE 9.2 mph - N/A   Overcast
12:56 PM 26.6 °F 18.2 °F 24.8 °F 93% 30.48 in 10.0 mi SE 8.1 mph - N/A   Overcast
1:16 PM 26.6 °F 18.2 °F 26.6 °F 100% 30.47 in 10.0 mi SE 8.1 mph - N/A   Overcast
1:36 PM 26.6 °F 19.1 °F 26.6 °F 100% 30.47 in 10.0 mi SSE 6.9 mph - N/A   Overcast
1:56 PM 26.6 °F 19.1 °F 24.8 °F 93% 30.47 in 10.0 mi SSE 6.9 mph - N/A   Overcast
2:16 PM 26.6 °F 18.2 °F 24.8 °F 93% 30.46 in 10.0 mi SSE 8.1 mph - N/A   Overcast
2:36 PM 26.6 °F 17.5 °F 24.8 °F 93% 30.46 in 10.0 mi South 9.2 mph - N/A   Overcast
2:56 PM 26.6 °F 19.1 °F 24.8 °F 93% 30.46 in 10.0 mi South 6.9 mph - N/A   Overcast
3:16 PM 26.6 °F 19.1 °F 24.8 °F 93% 30.46 in 10.0 mi South 6.9 mph - N/A   Overcast
3:36 PM 26.6 °F 20.0 °F 24.8 °F 93% 30.45 in 10.0 mi South 5.8 mph - N/A   Overcast
3:56 PM 26.6 °F 21.2 °F 24.8 °F 93% 30.45 in 10.0 mi South 4.6 mph - N/A   Overcast
4:16 PM 26.6 °F 21.2 °F 24.8 °F 93% 30.45 in 10.0 mi South 4.6 mph - N/A   Overcast
4:36 PM 26.6 °F 20.0 °F 24.8 °F 93% 30.44 in 10.0 mi South 5.8 mph - N/A   Overcast
4:56 PM 26.6 °F 19.1 °F 24.8 °F 93% 30.44 in 10.0 mi South 6.9 mph - N/A   Overcast
5:16 PM 24.8 °F 15.3 °F 24.8 °F 100% 30.44 in 10.0 mi South 9.2 mph - N/A   Overcast
5:36 PM 24.8 °F 16.1 °F 24.8 °F 100% 30.43 in 10.0 mi South 8.1 mph - N/A   Overcast
5:56 PM 24.8 °F 17.9 °F 24.8 °F 100% 30.43 in 10.0 mi SSE 5.8 mph - N/A   Overcast
6:16 PM 24.8 °F 15.3 °F 23.0 °F 93% 30.43 in 10.0 mi ESE 9.2 mph - N/A   Overcast
6:36 PM 24.8 °F 16.1 °F 24.8 °F 100% 30.43 in 10.0 mi ESE 8.1 mph - N/A   Overcast
6:56 PM 24.8 °F 16.1 °F 23.0 °F 93% 30.42 in 10.0 mi ESE 8.1 mph - N/A   Overcast
7:16 PM 24.8 °F 16.1 °F 23.0 °F 93% 30.43 in 10.0 mi ESE 8.1 mph - N/A   Overcast
7:36 PM 24.8 °F 14.6 °F 23.0 °F 93% 30.42 in 10.0 mi ESE 10.4 mph - N/A   Overcast
7:56 PM 24.8 °F 14.6 °F 23.0 °F 93% 30.41 in 10.0 mi East 10.4 mph - N/A   Overcast
8:16 PM 24.8 °F 16.9 °F 21.2 °F 86% 30.41 in 10.0 mi ESE 6.9 mph - N/A   Overcast
8:36 PM 24.8 °F 16.9 °F 21.2 °F 86% 30.40 in 10.0 mi East 6.9 mph - N/A   Overcast
8:56 PM 24.8 °F 19.1 °F 21.2 °F 86% 30.40 in 10.0 mi ESE 4.6 mph - N/A   Overcast
9:16 PM 24.8 °F 19.1 °F 21.2 °F 86% 30.40 in 10.0 mi ENE 4.6 mph - N/A   Overcast
9:36 PM 24.8 °F 17.9 °F 21.2 °F 86% 30.39 in 10.0 mi NE 5.8 mph - N/A   Overcast
9:56 PM 23.0 °F 13.9 °F 21.2 °F 93% 30.38 in 10.0 mi NE 8.1 mph - N/A   Mostly Cloudy
10:16 PM 23.0 °F 15.8 °F 21.2 °F 93% 30.38 in 10.0 mi ENE 5.8 mph - N/A   Scattered Clouds
10:36 PM 23.0 °F 15.8 °F 21.2 °F 93% 30.38 in 10.0 mi ENE 5.8 mph - N/A   Scattered Clouds
10:56 PM 23.0 °F 13.9 °F 21.2 °F 93% 30.38 in 10.0 mi ESE 8.1 mph - N/A   Mostly Cloudy
11:16 PM 21.2 °F 16.4 °F 19.4 °F 93% 30.37 in 10.0 mi ENE 3.5 mph - N/A   Scattered Clouds
11:36 PM 21.2 °F 13.6 °F 19.4 °F 93% 30.37 in 10.0 mi East 5.8 mph - N/A   Clear
11:56 PM 21.2 °F - 17.6 °F 86% 30.36 in 10.0 mi Calm Calm - N/A   Clear